Waukegan, IL

8:34 PM CST on December 15, 2019 (GMT -0600)
Waukegan Regional

Weather History for KUGN - November, 2019

Change the Weather History Date:

Tuesday, November 19, 2019

  Actual Average Record
Temperature  
Mean Temperature 38 °F 37 °F  
Max Temperature 41 °F 45 °F 59 °F (1999)
Min Temperature 34 °F 30 °F 15 °F (2014)
Degree Days  
Heating Degree Days 28 28  
Month to date heating degree days 643 442  
Since 1 July heating degree days 1167 1048  
Cooling Degree Days 0 0  
Month to date cooling degree days 0 0  
Year to date cooling degree days 597 564  
Moisture  
Dew Point 31 °F    
Average Humidity 76    
Maximum Humidity 85    
Minimum Humidity 65    
Precipitation  
Precipitation 0.00 in 0.08 in 0.51 in (2004)
Month to date precipitation 0.46 1.87  
Year to date precipitation 46.07 32.70  
Sea Level Pressure  
Sea Level Pressure 29.86 in    
Wind  
Wind Speed 2 mph ()    
Max Wind Speed 7 mph    
Max Gust Speed 11 mph    
Visibility 7.3 miles    
Events      
T = Trace of Precipitation, MM = Missing Value Source: Averaged Metar Reports

Daily Weather History Graph

Daily Weather History Graph

Search for Another Location

Airport or City:

Astronomy

Nov. 19, 2019 Rise Set
Actual Time 6:47 AM CST 4:26 PM CST
Civil Twilight 6:16 AM CST 4:56 PM CST
Nautical Twilight 5:42 AM CST 5:30 PM CST
Astronomical Twilight 5:08 AM CST 6:04 PM CST
Moon 11:22 PM CST (11/19) 12:56 PM CST (11/19)
Length of Visible Light 10h 40m
Length of Day
9h 39m
Waning Gibbous, 51% of the Moon is Illuminated
Nov 19
Waning Gibbous
Nov 19
Last Quarter
Nov 26
New
Dec 4
First Quarter
Dec 11
Full

Hourly Weather History & Observations

Time (CST) Temp. Windchill Dew Point Humidity Pressure Visibility Wind Dir Wind Speed Gust Speed Precip Events Conditions
12:55 AM 35.1 °F 32.2 °F 30.0 °F 82% 29.78 in 9.0 mi Variable 3.5 mph - N/A   Overcast
1:55 AM 35.1 °F 30.1 °F 30.0 °F 82% 29.77 in 9.0 mi SW 5.8 mph - N/A   Overcast
2:55 AM 35.1 °F 31.0 °F 28.9 °F 78% 29.75 in 10.0 mi South 4.6 mph - N/A   Overcast
3:55 AM 35.1 °F - 28.0 °F 76% 29.76 in 10.0 mi Calm Calm - N/A   Overcast
4:55 AM 35.1 °F 30.1 °F 28.9 °F 78% 29.78 in 10.0 mi SW 5.8 mph - N/A   Overcast
5:55 AM 35.1 °F - 28.9 °F 78% 29.78 in 9.0 mi Calm Calm - N/A   Overcast
6:55 AM 35.1 °F - 28.9 °F 78% 29.79 in 8.0 mi Calm Calm - N/A   Overcast
7:02 AM 35.1 °F - 30.0 °F 82% 29.76 in 8.0 mi Calm Calm - N/A   Overcast
7:55 AM 35.1 °F - 30.0 °F 82% 29.81 in 7.0 mi Calm Calm - N/A   Overcast
8:55 AM 36.0 °F - 28.9 °F 76% 29.81 in 7.0 mi Calm Calm - N/A   Overcast
9:55 AM 37.9 °F - 30.0 °F 73% 29.82 in 6.0 mi Calm Calm - N/A   Haze
10:55 AM 39.0 °F 36.8 °F 30.9 °F 73% 29.82 in 6.0 mi South 3.5 mph - N/A   Haze
11:37 AM 39.9 °F - 30.9 °F 70% 29.80 in 6.0 mi Calm Calm - N/A   Haze
11:55 AM 39.9 °F 36.7 °F 30.9 °F 70% 29.83 in 6.0 mi Variable 4.6 mph - N/A   Haze
12:55 PM 41.0 °F 37.1 °F 32.0 °F 70% 29.84 in 7.0 mi WNW 5.8 mph - N/A   Overcast
1:55 PM 41.0 °F 38.0 °F 32.0 °F 70% 29.85 in 7.0 mi WNW 4.6 mph - N/A   Overcast
2:55 PM 41.0 °F 39.0 °F 30.9 °F 67% 29.88 in 7.0 mi WNW 3.5 mph - N/A   Overcast
3:55 PM 39.9 °F 37.8 °F 30.9 °F 70% 29.91 in 8.0 mi West 3.5 mph - N/A   Overcast
4:55 PM 39.9 °F - 30.9 °F 70% 29.92 in 9.0 mi Calm Calm - N/A   Overcast
5:55 PM 39.9 °F - 32.0 °F 73% 29.94 in 8.0 mi Calm Calm - N/A   Overcast
6:55 PM 39.0 °F - 32.0 °F 76% 29.96 in 7.0 mi Calm Calm - N/A   Overcast
7:51 PM 39.2 °F - 33.8 °F 81% 29.95 in 6.0 mi Calm Calm - N/A   Haze
7:55 PM 39.0 °F - 33.1 °F 79% 29.98 in 6.0 mi Calm Calm - N/A   Haze
8:55 PM 39.0 °F - 33.1 °F 79% 29.99 in 6.0 mi Calm Calm - N/A   Haze
9:55 PM 37.9 °F - 33.1 °F 83% 29.99 in 6.0 mi Calm Calm - N/A   Haze
10:55 PM 37.9 °F - 33.1 °F 83% 30.01 in 5.0 mi Calm Calm - N/A   Haze
11:55 PM 37.9 °F - 33.1 °F 83% 30.04 in 5.0 mi Calm Calm - N/A   Haze